Location: Unspecified
(0.0000°N, 0.0000°E)
Time: 01:17:17
(UTC+00:00)

Explorer 25 - Pass Details

Date: 12 March 2026
Orbit: 523 x 2264 km, 81.3° (Epoch: 14 April)

Event Time Altitude Azimuth Distance (km) Brightness Sun altitude
Rises 19:15:09 0° 196° (SSW) 5,804 12.8 -16.3°
Reaches altitude 10° 19:19:02 10° 200° (SSW) 4,714 12.3 -17.3°
Maximum altitude 19:30:33 49° 270° (W) 2,271 10.8 -20.2°
Drops below altitude 10° 19:39:18 10° 343° (NNW) 3,583 11.6 -22.4°
Sets 19:41:54 0° 349° (N) 4,341 12.0 -23.0°
